Theta_e
298 298 299 298 299 298 299 299 299 299 298 298 298 299 299 300 300 297 291 292 288 280 281 282 283 278 276 275 269 270 272 269 270 269 262 263 256 265 263 269 268 264 258 255 252 250 256 273 273 266 271 274 273 276
298 298 298 298 298 299 299 298 298 299 299 298 298 298 298 298 299 299 290 293 293 286 284 285 285 286 284 282 278 270 275 267 276 265 263 262 259 255 261 262 273 265 267 262 264 264 274 273 275 279 278 275 277 276
297 298 298 299 298 298 298 298 298 298 298 298 298 298 298 298 299 298 292 290 290 285 284 283 282 286 287 287 288 277 273 280 275 278 270 269 267 266 265 263 266 270 274 269 270 273 274 277 278 278 278 278 279 278
297 297 297 297 298 298 298 298 298 298 298 298 297 297 297 297 298 298 292 290 289 285 278 276 282 282 287 287 286 286 284 282 281 279 277 274 271 275 271 273 271 273 272 269 271 274 276 277 277 278 278 278 276 275
296 297 297 297 297 297 297 298 298 298 297 297 297 297 296 297 297 296 294 292 292 285 276 271 276 281 283 284 284 284 283 281 280 278 276 274 276 276 275 274 271 275 273 271 270 276 275 276 278 277 275 274 273 271
296 296 296 296 296 296 297 297 297 297 297 297 296 296 296 296 296 290 284 291 292 290 282 275 276 277 281 281 281 281 282 281 281 276 276 277 280 276 271 270 275 277 278 278 275 278 277 278 274 271 270 270 270 270
295 295 295 296 296 296 296 296 296 296 296 297 296 296 296 296 292 285 283 284 292 291 282 276 274 272 279 279 276 276 280 280 280 278 277 277 277 278 274 270 276 277 278 277 271 271 273 272 269 268 269 268 267 266
294 294 295 295 295 295 295 296 296 296 296 296 296 296 296 295 294 287 291 292 292 286 283 274 270 266 272 269 271 274 274 278 279 277 275 276 276 277 271 275 277 276 270 269 266 267 266 266 267 265 265 264 262 262
293 294 294 294 294 294 294 295 295 295 296 296 296 296 292 288 284 285 294 295 291 284 276 274 264 262 269 270 274 273 275 271 276 273 274 275 273 269 271 274 272 264 265 263 263 263 263 261 261 262 261 260 259 259
292 292 292 293 293 293 294 294 294 295 295 295 292 284 280 284 292 291 287 282 282 281 280 272 264 263 273 271 271 269 271 269 266 270 273 272 271 275 266 263 263 262 261 260 259 259 257 257 258 258 258 259 259 258
290 291 291 291 292 292 293 293 294 294 294 287 283 280 283 290 285 280 276 275 273 272 276 274 273 270 275 269 269 274 269 267 266 265 268 263 263 270 262 260 260 261 260 258 258 258 258 257 256 256 257 257 257 256
289 290 290 290 291 292 292 293 293 291 285 285 284 285 284 281 277 272 271 271 268 264 261 268 270 273 273 275 270 271 266 266 264 263 264 260 265 258 257 257 258 257 255 254 255 255 256 257 256 255 255 254 254 254
289 289 289 290 290 291 292 292 292 293 290 285 281 277 275 274 269 267 263 260 259 259 262 264 266 270 271 274 271 271 266 265 262 262 261 262 257 255 253 254 254 254 253 253 254 254 254 254 254 253 253 253 253 253
289 289 289 289 289 290 290 292 292 289 284 277 274 269 269 267 264 261 260 262 267 265 262 265 260 266 261 266 266 261 261 260 255 254 257 256 251 249 250 252 248 250 252 252 251 251 251 251 252 252 252 252 253 254
288 288 288 288 289 289 290 290 291 287 281 275 273 267 264 258 252 250 249 258 261 264 268 264 262 269 262 265 264 262 262 259 259 258 256 250 250 250 250 250 248 248 249 248 248 247 249 250 250 250 250 253 255 257
287 287 284 287 288 289 289 288 287 284 280 275 271 265 257 258 252 250 249 252 257 265 262 264 263 265 260 262 260 259 255 256 259 248 246 247 245 246 246 246 247 246 244 245 246 245 247 246 247 249 253 256 257 257
285 275 285 287 287 288 289 282 280 268 268 267 261 256 261 256 256 249 250 254 263 262 259 264 263 262 263 258 255 255 255 253 244 242 241 243 245 244 242 241 243 243 244 244 242 244 243 246 249 253 255 256 257 257
277 280 286 286 286 281 273 271 268 265 259 255 257 249 249 249 250 249 253 260 262 262 263 265 263 257 255 253 253 251 244 241 240 242 244 243 241 240 239 241 243 243 244 244 244 244 243 248 253 255 255 256 257 257
280 280 284 286 281 272 268 264 264 258 252 249 251 252 252 249 253 254 254 257 258 258 262 260 261 253 254 248 244 241 239 240 243 244 244 241 240 240 241 241 243 242 242 243 244 247 252 254 255 255 255 256 255 256
281 281 280 280 278 269 263 261 265 259 255 254 253 252 253 251 253 252 254 254 256 257 260 255 253 246 248 245 244 243 244 246 244 245 245 244 243 242 247 248 246 244 245 245 248 254 254 254 254 254 255 255 254 255
274 274 276 270 266 264 261 260 257 257 257 252 253 254 251 253 251 252 253 251 254 243 249 243 241 240 239 239 241 242 246 248 247 247 244 244 246 247 249 244 244 245 249 251 251 252 253 252 253 254 253 254 254 255
267 273 267 270 264 260 258 258 256 256 252 250 252 253 251 252 251 250 247 249 244 242 240 239 239 239 240 241 241 240 241 241 240 244 247 246 246 247 249 250 250 251 251 252 251 251 252 253 253 253 252 252 253 253
266 265 261 261 261 257 252 256 254 254 253 250 249 250 247 247 244 248 245 240 240 239 237 237 237 235 239 238 238 239 238 241 242 243 244 245 246 248 250 251 251 251 251 251 252 252 251 253 252 252 251 250 249 249
260 252 251 251 253 251 250 248 253 253 251 250 250 247 244 241 245 245 244 239 241 237 239 239 237 241 240 241 241 241 241 240 243 245 246 246 247 250 251 251 252 252 251 251 251 251 252 251 251 251 250 248 248 248
254 245 247 244 244 246 246 246 246 250 248 243 244 243 243 240 243 241 243 242 238 238 238 235 236 239 242 240 240 242 242 246 247 248 249 250 250 250 252 253 253 253 252 251 250 250 250 250 250 250 249 247 246 246
242 239 242 236 242 244 241 243 241 241 239 241 240 239 237 240 244 245 242 241 238 239 240 243 245 243 244 245 246 245 247 248 249 249 251 251 252 251 250 251 251 252 252 250 249 248 248 249 248 248 248 248 246 241
242 240 239 237 238 239 240 238 238 240 240 242 239 240 241 244 243 245 242 239 241 241 243 247 248 247 247 245 246 247 249 252 252 251 251 251 252 252 252 251 251 252 251 250 249 247 247 247 247 248 248 245 241 240
238 237 241 239 238 235 237 235 238 240 240 238 239 242 243 245 245 244 244 242 241 241 242 243 246 247 247 248 249 251 251 249 249 250 250 251 251 251 252 253 253 257 253 251 250 249 248 248 247 247 248 246 246 241
238 235 236 240 238 240 239 240 239 237 237 236 240 241 241 241 240 239 243 243 240 245 245 246 247 246 249 250 250 250 250 250 250 249 248 249 250 252 251 251 251 250 249 248 252 255 253 251 250 251 248 246 245 239
238 232 238 235 240 241 239 235 235 232 232 234 233 239 240 240 240 236 239 242 244 245 245 245 245 247 247 248 248 249 247 249 250 250 247 248 250 248 246 246 247 247 245 242 246 246 249 246 245 242 242 243 242 242
232 232 237 236 239 236 233 229 228 229 230 231 229 235 238 237 240 238 238 238 239 238 242 243 242 239 243 242 242 242 247 244 242 246 245 245 245 245 246 247 247 244 242 242 242 241 242 242 241 242 243 244 244 245
232 233 237 241 239 233 230 230 229 233 231 234 235 230 236 238 241 243 241 238 239 240 243 241 240 245 243 244 241 241 247 245 243 246 246 248 248 249 249 249 246 243 242 244 244 243 242 243 244 245 246 245 245 245
232 229 229 234 237 238 234 233 234 236 234 234 235 230 230 235 242 244 242 238 241 241 242 242 243 241 241 242 245 248 249 248 248 253 255 254 253 253 251 249 247 245 245 245 246 246 245 245 246 246 246 246 246 246
Wind_Speed
23 23 22 22 22 22 21 20 19 19 19 20 21 19 17 18 21 12 3 7 7 3 8 7 8 7 2 3 5 5 4 4 3 3 4 4 4 6 1 4 4 5 4 4 3 3 10 6 4 5 9 6 6 7
26 27 27 25 24 24 24 24 23 22 24 22 21 20 21 19 18 18 5 8 7 5 3 2 8 9 9 10 6 3 6 6 4 3 1 3 2 1 4 7 4 5 8 6 11 10 5 5 12 17 11 9 14 10
26 26 25 26 25 26 24 23 25 23 21 20 21 18 21 20 20 18 4 5 5 5 5 5 11 12 9 15 14 7 2 6 5 4 5 4 7 5 6 8 5 6 7 8 12 15 18 19 19 10 11 17 17 10
26 25 24 24 25 25 26 24 24 23 22 22 20 19 20 18 20 19 7 6 6 1 4 8 1 5 10 11 14 16 14 2 2 3 6 6 8 5 7 9 10 7 5 6 13 17 17 18 16 17 17 11 4 3
25 25 25 25 24 25 24 24 25 24 23 22 21 22 21 18 19 11 5 6 9 6 2 3 0 6 5 11 14 11 11 10 8 7 7 10 7 7 5 6 11 8 16 11 16 20 16 19 17 3 3 4 4 5
25 25 24 24 24 24 25 25 24 25 25 24 23 21 19 18 15 2 3 7 10 6 5 3 2 4 9 9 12 12 12 8 6 4 6 8 8 5 6 12 14 12 16 17 18 18 15 14 6 7 5 6 8 8
24 24 25 24 24 24 24 24 25 24 25 25 24 23 20 19 7 4 3 2 12 8 4 3 3 4 2 5 1 2 4 5 7 8 10 9 6 6 7 16 13 15 11 10 4 4 10 4 4 9 8 10 12 11
23 23 23 23 23 23 24 24 24 23 23 24 25 25 21 20 15 9 8 6 8 3 4 4 4 4 2 2 3 2 4 5 6 6 2 6 4 6 11 11 17 8 2 4 6 5 4 8 6 8 8 9 13 14
20 22 22 22 23 23 23 22 22 22 22 21 20 22 10 7 5 4 13 19 8 5 3 3 6 6 1 1 2 1 2 3 2 5 7 6 8 9 8 13 6 3 2 3 5 4 3 5 9 9 9 9 11 15
18 18 19 21 22 22 22 22 22 22 21 21 11 5 4 5 9 12 3 3 7 6 5 4 2 3 5 3 3 2 3 4 4 6 2 6 9 9 3 5 6 6 6 5 4 4 5 4 10 13 11 10 10 14
18 19 20 19 19 18 21 23 24 22 20 5 5 4 1 10 3 3 5 6 3 3 3 2 4 4 2 4 6 5 4 3 3 4 4 2 4 3 7 6 6 6 6 5 3 4 7 8 11 13 13 11 12 14
21 20 18 18 20 19 17 18 20 13 5 8 8 5 3 4 4 5 5 2 4 7 2 5 5 6 3 2 4 3 4 1 5 2 1 2 5 5 5 5 5 5 5 5 3 6 8 11 11 12 12 13 13 14
19 21 21 21 17 18 20 19 18 14 14 3 4 5 5 4 7 8 9 4 0 3 5 3 3 3 3 3 2 3 4 5 1 1 5 7 3 4 2 1 0 2 2 3 6 6 8 10 10 10 13 12 13 13
22 22 21 20 19 17 17 20 21 7 4 5 6 9 8 5 5 6 6 7 5 3 4 3 2 3 1 2 3 4 3 4 1 1 9 3 4 2 1 0 2 4 5 7 7 8 9 9 10 10 10 11 11 13
25 23 19 19 19 19 18 16 18 5 4 6 5 7 6 3 3 1 1 4 2 2 5 3 3 1 1 3 3 3 3 5 7 8 4 3 3 1 1 2 3 4 5 6 5 6 9 9 8 10 10 9 11 10
6 9 6 12 15 17 18 14 3 3 4 2 4 6 2 5 4 2 1 1 2 3 3 4 4 2 4 4 3 8 6 9 6 4 3 2 2 1 2 3 4 5 5 6 6 6 8 7 8 9 11 9 8 9
5 1 5 10 12 15 19 4 3 5 4 4 2 4 4 3 4 3 3 3 1 3 4 4 7 8 3 3 3 5 7 4 3 2 2 3 2 3 3 4 4 5 6 6 4 5 5 7 8 7 8 9 9 8
4 5 6 1 6 6 4 6 4 5 5 3 2 2 3 2 4 1 2 2 2 2 3 4 5 3 7 7 5 4 2 2 2 2 2 2 2 3 2 5 5 5 5 6 5 6 5 5 6 5 8 8 8 7
5 8 10 7 7 5 4 6 5 5 3 1 1 2 3 3 2 2 2 3 2 2 2 1 3 4 5 2 3 2 2 3 3 2 1 3 3 3 4 4 5 4 4 4 4 4 4 5 5 5 6 6 5 5
13 17 14 17 9 4 5 4 3 4 2 1 3 3 3 2 1 2 3 3 2 1 2 3 5 3 3 3 3 3 3 3 3 2 1 3 2 2 2 2 2 4 4 4 4 6 5 5 5 6 6 5 5 6
8 7 13 8 5 7 5 3 5 3 3 3 1 3 2 2 3 3 1 2 1 1 1 2 2 3 1 1 1 2 2 3 3 3 3 1 2 1 2 3 2 2 2 3 4 5 6 5 6 6 6 5 5 5
2 9 3 6 5 4 6 5 4 2 3 1 2 2 2 2 2 1 2 1 1 3 3 3 3 3 2 0 2 2 3 3 2 1 1 1 1 2 2 1 2 2 2 3 3 4 5 5 5 5 5 6 6 5
6 5 5 6 5 6 1 3 3 3 4 1 0 3 2 1 2 2 2 2 4 2 2 2 2 2 3 1 1 1 2 4 2 2 2 2 3 3 2 1 1 1 2 2 3 3 4 7 6 5 5 5 4 5
11 9 8 6 6 3 2 5 3 3 3 2 2 2 1 2 3 4 2 3 4 2 0 2 2 3 3 4 2 2 3 3 1 2 2 2 1 2 2 2 2 1 1 3 3 3 4 4 6 4 4 4 4 4
9 11 6 7 4 5 5 4 4 3 3 2 2 3 2 3 3 1 3 4 2 2 2 1 2 2 4 2 2 3 3 3 3 3 3 3 1 1 1 1 1 2 0 2 2 3 3 4 4 4 4 3 5 6
10 5 5 1 4 4 0 3 2 2 2 3 0 2 2 3 3 5 4 4 4 4 4 5 5 2 2 3 3 2 4 4 3 1 2 3 3 2 2 1 1 2 3 2 1 3 4 4 4 6 5 5 6 4
7 5 4 0 3 3 3 2 2 3 3 3 2 2 3 2 4 5 3 3 2 4 4 4 4 4 3 3 3 3 2 3 4 3 2 2 3 3 4 3 4 3 3 3 3 3 4 5 5 5 6 4 3 3
2 3 3 4 3 0 4 2 2 1 2 2 2 1 6 7 5 4 4 3 3 1 1 1 2 3 3 3 2 2 1 1 2 4 3 3 4 4 5 4 4 8 4 4 4 4 5 6 6 6 7 6 6 3
3 3 0 4 3 3 1 2 2 3 2 3 3 2 4 4 3 2 2 2 0 3 3 2 1 1 1 1 1 2 2 2 1 1 1 3 3 3 4 3 3 3 3 3 8 8 7 7 7 7 5 5 4 3
4 2 3 2 2 1 3 3 2 3 1 1 1 4 4 4 4 1 1 1 2 3 3 3 2 3 2 2 2 3 2 4 5 4 4 4 4 3 2 3 3 4 3 3 5 5 6 4 5 4 3 4 3 4
1 2 2 1 1 3 3 2 2 1 2 1 1 2 4 5 6 3 3 2 2 2 3 1 2 2 3 3 3 1 4 2 4 6 5 4 4 5 5 5 5 4 3 4 4 3 3 3 3 5 6 8 8 6
3 2 1 2 3 3 3 3 1 1 3 3 2 2 4 3 4 4 2 3 2 1 5 3 3 5 5 3 2 3 4 3 3 4 7 5 6 7 6 5 4 4 4 5 5 5 5 7 6 7 8 9 9 8
1 1 1 1 4 4 4 2 4 4 2 2 2 1 2 2 3 5 2 3 4 4 4 4 4 4 5 5 5 4 5 5 7 9 11 12 13 11 7 5 4 5 6 6 7 6 9 9 10 10 10 10 11 10
Wind_Direction
248 250 249 251 249 250 257 249 246 247 251 256 249 249 246 250 243 221 187 189 194 210 240 198 187 186 115 144 162 231 36 337 47 170 148 221 181 223 141 240 199 157 155 225 68 41 286 199 331 135 262 279 255 264
253 249 244 242 250 252 248 247 245 246 247 247 246 251 248 247 249 234 210 180 189 223 255 215 232 226 192 186 161 233 199 172 170 94 280 86 266 21 185 248 192 269 193 198 184 221 242 236 273 283 286 258 282 273
258 256 255 251 249 251 252 243 246 251 247 241 239 243 248 258 244 240 207 158 185 232 241 217 225 218 229 226 208 218 267 185 213 172 172 208 234 140 243 235 258 241 210 236 264 260 256 267 275 271 271 276 280 266
255 255 254 252 253 253 253 253 251 251 244 243 248 253 250 248 252 243 225 180 189 192 238 253 354 186 211 205 203 212 233 116 149 153 220 226 239 194 247 259 230 235 158 216 253 271 275 267 261 262 268 273 280 283
257 253 252 257 258 257 256 253 249 251 250 243 243 246 254 256 250 249 230 186 203 204 246 252 284 235 191 187 204 214 226 228 225 229 227 242 236 238 228 234 243 216 246 239 255 268 265 273 279 353 297 313 346 325
256 253 252 253 256 256 254 253 249 246 244 238 242 245 246 245 242 123 246 200 192 204 248 232 294 192 197 184 190 200 209 214 216 207 235 235 217 218 244 253 259 251 242 241 253 262 275 286 80 45 343 334 316 313
254 251 252 253 256 254 252 251 250 248 244 239 235 242 240 238 214 194 198 275 197 181 230 242 239 272 229 159 180 175 163 213 219 238 232 235 228 217 253 262 260 253 255 263 42 360 273 69 330 343 329 327 319 306
257 254 252 252 254 254 253 250 249 250 244 241 233 234 240 237 240 229 206 171 167 209 202 223 243 10 187 168 210 172 174 185 213 223 207 234 253 231 247 245 247 256 98 104 48 27 316 314 322 331 332 332 316 308
262 261 257 255 254 254 252 251 247 245 243 235 235 230 233 217 193 198 194 193 178 202 227 197 154 232 150 199 115 86 189 192 205 217 220 184 224 224 217 241 248 79 106 349 339 309 10 336 315 320 323 319 305 305
272 270 263 259 257 254 252 249 247 241 235 229 211 195 212 176 138 111 103 221 206 192 210 195 96 213 141 163 188 127 202 220 203 230 112 221 238 235 80 86 93 89 72 25 356 324 333 310 320 317 313 307 301 300
268 264 260 260 261 260 256 252 246 235 227 191 185 167 140 155 105 167 203 197 176 211 197 136 180 144 216 139 206 216 204 207 221 247 202 191 259 198 118 100 76 68 59 51 21 307 300 293 303 308 311 311 305 300
255 252 257 258 253 246 249 262 241 211 214 165 127 108 115 184 175 183 184 165 178 213 250 158 192 193 180 150 162 190 192 126 234 81 241 275 241 92 85 69 56 35 13 344 327 306 301 298 301 299 298 299 296 295
265 266 255 251 250 250 239 231 241 227 151 138 144 141 174 176 195 185 171 256 191 196 197 176 181 161 176 205 141 163 200 222 83 126 224 227 114 110 87 93 31 15 351 320 307 291 288 288 290 286 290 289 289 291
262 255 256 248 242 246 241 235 226 164 250 169 172 172 189 167 213 180 168 172 213 145 145 125 99 157 192 126 171 140 216 110 89 242 230 215 170 196 284 210 48 333 329 311 289 289 291 291 291 288 278 280 288 292
257 248 249 242 233 233 231 234 233 167 208 210 152 175 175 185 53 162 169 105 197 150 135 92 45 108 293 138 171 119 165 235 209 223 222 199 143 137 39 357 333 295 291 276 280 284 292 289 287 291 284 282 287 293
257 237 244 226 230 233 235 231 218 189 188 234 107 109 60 64 327 20 129 250 235 126 82 66 123 159 232 160 135 214 144 223 242 206 209 133 160 233 248 267 274 270 274 284 280 270 281 283 282 280 293 293 307 309
82 197 298 243 244 237 223 137 123 35 39 92 75 10 81 66 146 165 146 193 226 107 174 136 169 203 94 107 242 188 209 235 191 245 226 204 200 262 277 280 290 299 292 284 272 283 269 276 275 284 309 321 319 316
49 309 18 347 102 78 47 16 83 66 79 17 149 272 52 73 107 16 212 96 154 163 160 192 125 144 177 180 247 221 202 236 220 204 216 240 248 271 233 267 288 277 283 291 278 279 277 293 312 319 319 319 318 325
63 31 1 83 79 84 59 30 23 79 46 127 95 42 66 94 67 63 344 54 37 342 142 131 132 185 221 191 167 230 239 190 175 222 248 273 244 264 285 276 277 297 295 285 302 291 303 324 324 326 320 322 329 331
51 40 43 49 52 71 73 40 33 79 81 100 37 49 54 66 5 48 39 27 6 155 186 182 199 193 151 197 183 169 172 156 121 75 324 293 261 298 319 331 290 290 306 321 321 346 342 347 349 339 332 341 338 344
39 359 26 54 53 54 70 62 62 45 101 75 354 47 61 21 44 34 357 359 66 178 155 198 191 246 282 262 163 122 115 149 175 164 176 236 272 315 315 306 320 334 349 358 348 342 2 356 338 337 339 344 345 350
3 21 59 31 85 68 75 17 95 116 74 108 70 25 70 72 56 339 286 69 98 237 180 165 208 163 76 111 214 193 194 129 83 69 334 341 303 329 309 315 358 351 354 2 346 338 334 338 342 346 346 348 353 357
30 33 54 15 87 56 5 343 81 14 84 82 134 80 34 338 263 308 33 211 252 247 200 172 175 150 134 275 96 30 168 125 118 214 236 231 239 249 260 250 149 350 348 355 338 323 321 333 336 345 341 348 347 348
31 46 36 40 22 79 1 28 18 76 81 47 64 99 308 259 317 50 252 263 251 318 1 182 118 65 16 32 58 243 240 155 193 276 215 172 248 258 227 237 208 200 305 300 309 318 324 329 339 337 343 335 343 346
69 358 24 11 0 49 44 31 15 60 82 8 80 9 336 12 57 13 236 271 287 249 222 133 103 114 141 239 294 263 232 163 180 218 251 192 200 274 244 239 212 186 186 309 324 321 320 319 322 327 332 329 345 338
68 315 51 274 330 75 265 75 44 140 109 58 343 272 22 80 68 251 237 224 219 195 183 179 166 143 266 205 173 212 233 181 143 206 262 190 199 196 216 252 284 249 191 206 262 299 308 308 306 319 318 328 334 332
64 339 331 279 125 114 61 37 78 89 90 140 221 80 74 91 252 255 281 232 194 227 200 162 159 169 195 200 235 251 189 170 199 213 207 209 218 205 202 217 236 233 168 212 220 225 264 288 292 294 298 294 263 255
125 23 73 305 40 359 128 79 85 128 210 240 84 134 151 188 232 241 213 246 213 269 154 204 170 166 161 196 188 144 199 247 277 275 271 249 227 216 216 229 241 260 243 215 230 241 235 249 264 277 279 271 285 238
35 326 293 11 4 42 85 136 202 238 209 111 118 251 250 237 239 244 288 290 278 103 95 108 308 29 27 353 214 206 188 175 140 351 318 289 326 290 199 215 231 236 236 246 271 273 255 248 247 255 256 261 273 269
332 11 61 27 67 330 263 159 236 273 295 177 230 310 301 279 254 235 306 56 138 187 194 176 183 148 209 190 277 309 242 198 195 180 192 230 227 249 215 229 242 247 238 238 264 279 296 326 328 333 317 297 280 280
316 25 41 57 237 261 245 294 310 338 6 349 338 168 253 302 306 250 198 215 165 117 112 184 263 213 177 203 192 243 301 273 220 237 245 260 266 261 255 249 244 237 229 233 248 248 259 264 246 272 280 282 278 265
10 77 90 1 305 289 25 39 357 35 335 20 295 340 319 353 306 290 234 115 83 203 231 177 191 254 221 239 245 254 246 278 250 240 250 251 255 254 253 252 231 215 223 237 231 227 228 247 263 264 271 275 276 276
47 164 190 346 355 360 331 39 17 342 10 2 298 228 227 196 245 282 299 195 190 199 218 221 233 241 242 240 241 258 251 246 260 271 269 260 259 262 261 243 231 220 231 241 244 238 245 247 257 260 261 261 265 268